Tracking 19575 objects as of 18-Feb-2019
HD Live streaming from Space Station
objects crossing your sky now

SL-16 DEB

Track SL-16 DEB now!
10-day predictions


NORAD ID: 22576
Int'l Code: 1993-016D
Perigee: 849.4 km
Apogee: 1,143.2 km
Inclination: 71.0 °
Period: 104.9 minutes
Semi major axis: 7367 km
RCS: 0.087 m2 (small)
Launch date: March 26, 1993
Source: Commonwealth of Independent States (former USSR) (CIS)
Launch site: TYURATAM MISSILE AND SPACE COMPLEX (TTMTR)

Note: This is SATELLITE DEBRIS
aabbcc
Your satellite tracking list
Your tracking list is empty




NASA's NSSDC Master Catalog

Two Line Element Set (TLE):
1 22576U 93016D   19048.68752778 -.00000016  00000-0  24236-4 0  9992
2 22576  70.9950 118.5154 0199428  32.5301 130.9071 13.72906724297523
Source of the keplerian elements: AFSPC